Printer-friendly version
Follow the MPC on Twitter Follow the MPC on Facebook The MPC blog
Minor Planet Center

MPEC 2010-M08 : 2010 LO33

The following Minor Planet Electronic Circular may be linked-to from your own Web pages, but must not otherwise be redistributed electronically.

A form allowing access to any MPEC is at the bottom of this page.


Read MPEC 2010-M07 Read MPEC 2010-M09


M.P.E.C. 2010-M08                                Issued 2010 June 16, 14:47 UT

     The Minor Planet Electronic Circulars contain information on unusual
         minor planets and routine data on comets.  They are published
   on behalf of Commission 20 of the International Astronomical Union by the
          Minor Planet Center, Smithsonian Astrophysical Observatory,
                          Cambridge, MA 02138, U.S.A.

             Prepared using the Tamkin Foundation Computer Network

                              MPC@CFA.HARVARD.EDU
       URL http://www.minorplanetcenter.org/iau/mpc.html  ISSN 1523-6714

                                   2010 LO33

Additional Observations:
     K10L33O  C2010 05 20.30549 15 38 54.09 -20 47 53.3          21.6 V EM008G96
     K10L33O  C2010 05 20.31369 15 38 54.02 -20 47 52.9          21.4 V EM008G96
     K10L33O  C2010 05 20.32204 15 38 53.95 -20 47 52.1          21.2 V EM008G96
     K10L33O  C2010 05 20.33044 15 38 53.84 -20 47 52.2          21.1 V EM008G96
     K10L33O  C2010 06 12.21961 15 35 20.820-20 30 35.88                EM008807
     K10L33O  C2010 06 12.27337 15 35 20.345-20 30 33.04                EM008807

Observer details:
807 Cerro Tololo.  Observers D. Rabinowitz, S. Tourtellotte.  1.3-m reflector
    + CCD.
G96 Mt. Lemmon Survey.  Observer R. A. Kowalski.  Measurers J. D. Ahern,
    E. C. Beshore, A. Boattini, A. R. Gibbs, A. D. Grauer, R. E. Hill,
    R. A. Kowalski, S. M. Larson.  1.5-m reflector + CCD.

Orbital elements:
2010 LO33
Epoch 2010 May 24.0 TT = JDT 2455340.5                  MPC
M 315.77877              (2000.0)            P               Q
n   0.00812417     Peri.   92.99898     +0.84972048     +0.44266707
a  24.5066260      Node   240.88811     -0.50940620     +0.82936480
e   0.4591450      Incl.   19.13555     +0.13594274     +0.34088106
P 121              H    7.8           G   0.15
From 10 observations 2010 May 20-June 12.  E-assumed.

Ephemeris:
2010 LO33                a,e,i = 24.51, 0.46, 19                 q = 13.255
Date    TT    R. A. (2000) Decl.     Delta      r     Elong.  Phase     V
2010 06 13    15 35.24   -20 30.0   19.468   20.391   154.6     1.2    21.0
2010 06 23    15 33.91   -20 23.0   19.534   20.373   144.8     1.6    21.0
2010 07 03    15 32.81   -20 16.6   19.624   20.355   135.0     2.0    21.0
2010 07 13    15 31.95   -20 11.1   19.734   20.337   125.2     2.3    21.1
2010 07 23    15 31.39   -20 06.5   19.861   20.319   115.5     2.6    21.1
2010 08 02    15 31.15   -20 02.9   20.000   20.301   105.9     2.8    21.1
2010 08 12    15 31.23   -20 00.6   20.147   20.284    96.3     2.8    21.2
2010 08 22    15 31.64   -19 59.4   20.297   20.266    86.8     2.9    21.2
2010 09 01    15 32.38   -19 59.4   20.445   20.248    77.3     2.8    21.2
2010 09 11    15 33.43   -20 00.6   20.588   20.230    67.9     2.6    21.2
2010 09 21    15 34.78   -20 02.7   20.719   20.212    58.4     2.4    21.2
2010 10 01    15 36.40   -20 05.8   20.837   20.194    49.0     2.1    21.2
2010 10 11    15 38.25   -20 09.7   20.936   20.176    39.6     1.8    21.2
2010 10 21    15 40.30   -20 14.3   21.013   20.158    30.2     1.4    21.1

Brian G. Marsden             (C) Copyright 2010 MPC           M.P.E.C. 2010-M08

Read MPEC 2010-M07 Read MPEC 2010-M09


MPEC number:

Enter an MPEC number in one of the following forms:

  • 1997-B01 (the full form)
  • J97B01 (the packed version of the full form)
  • B01 (the abbreviated form)

Valid HTML 4.01!